Starlink 35485

operational
NORAD ID: 66252 Int'l Des: 2025-245 Owner: SPXS Country: US Constellation: starlink
LEOCIRCULAR

Starlink 35485について

説明を読み込み中...

リアルタイム位置

3D地球を読み込み中...

次回通過

高度履歴

Altitude vs Time

uPlot chart will show altitude changes over time

軌道要素

1 66252C 25245T 25303.07687500 .00475130 00000+0 74609-3 0 3032
2 66252 53.1600 182.3329 0004776 305.1983 139.3221 16.02721892 19
Epoch: Oct 30, 2025 • Age: 25 hours

現在のステータス

高度 269.1 km
速度 7.75 km/s
衛星直下点 -26.08°S, 96.87°E
打ち上げ日 Oct 29, 2025
運用期間 2 days
タイプ internet

技術仕様

分類 Payload
質量 575.00 kg
乾燥質量 530.00 kg
総質量 575.00 kg
長さ 0.30 m
直径 4.10 m
スパン 29.00 m
形状 Box + pan
製造者 SPXS
バスタイプ Starlink V2MO
フェーズステータス In Orbit
所有者/国 SPXS/US

大規模コンステレーション

Loading constellations...